Location: Home
(42.5358°N, 72.7383°W)
Time: 05:42:25
(UTC-05:00)

Courier 1B Rocket - Pass Details

Date: 07 December 2021
Orbit: 920 x 1202 km, 28.2° (Epoch: 25 January)

Event Time Altitude Azimuth Distance (km) Brightness Sun altitude
Rises 00:17:45 0° 250° (WSW) 3,619 - -68.8°
Reaches altitude 10° 00:21:11 10° 233° (SW) 2,640 - -68.5°
Maximum altitude 00:25:28 19° 190° (S) 2,035 - -68.2°
Drops below altitude 10° 00:29:41 10° 147° (SSE) 2,601 - -67.8°
Sets 00:33:02 0° 130° (SE) 3,547 - -67.5°
